Location: Poughquag
(41.6090°N, 73.6820°W)
Time: 03:07:55
(UTC-04:00)

S-56A Canister/Altair - Visible Passes

Search period start: 15 October 2019 00:00
Search period end: 25 October 2019 00:00
Orbit: 633 x 2499 km, 38.9° (Epoch: 14 October)

Date Brightness Start Highest point End Pass type
(mag) Time Alt. Az. Time Alt. Az. Time Alt. Az.
15 Oct 10.7 02:46:50 13° ESE 02:46:50 13° ESE 02:48:41 10° E visible
15 Oct 9.2 04:44:16 35° SSW 04:47:13 50° SSE 04:57:38 10° E visible
16 Oct 9.1 04:13:31 42° SSE 04:14:27 44° SSE 04:23:54 10° E visible
16 Oct 9.3 06:10:56 12° WSW 06:18:43 76° S 06:31:18 10° E visible
17 Oct 9.5 03:42:43 36° SE 03:42:43 36° SE 03:50:11 10° E visible
17 Oct 9.1 05:40:09 23° WSW 05:45:41 73° S 05:57:29 10° E visible
18 Oct 10.1 03:11:55 25° ESE 03:11:55 25° ESE 03:16:31 10° E visible
18 Oct 8.9 05:09:20 38° WSW 05:12:43 69° SSE 05:23:44 10° E visible
19 Oct 10.6 02:41:05 15° E 02:41:05 15° E 02:42:52 10° E visible
19 Oct 8.5 04:38:31 57° SSW 04:39:50 65° SSE 04:50:02 10° E visible
19 Oct 9.3 06:36:22 10° W 06:44:39 75° S 06:57:17 10° ESE visible
20 Oct 8.7 04:07:40 58° SE 04:07:40 58° SE 04:16:23 10° E visible
20 Oct 9.1 06:05:06 17° W 06:11:35 76° S 06:23:30 10° E visible
21 Oct 9.4 03:36:48 39° ESE 03:36:48 39° ESE 03:42:50 10° E visible
21 Oct 8.8 05:34:14 29° W 05:38:36 76° S 05:49:45 10° E visible
22 Oct 10.1 03:05:57 24° E 03:05:57 24° E 03:09:21 10° E visible
22 Oct 8.5 05:03:23 49° WSW 05:05:40 75° S 05:16:03 10° E visible
23 Oct 10.7 02:35:05 13° E 02:35:05 13° E 02:35:56 10° E visible
23 Oct 8.3 04:32:32 72° SSW 04:32:50 73° S 04:42:25 10° E visible
23 Oct 9.2 06:29:57 11° W 06:37:28 63° SSW 06:49:10 10° ESE visible
24 Oct 8.8 04:01:41 55° ESE 04:01:41 55° ESE 04:08:52 10° E visible
24 Oct 9.0 05:59:07 21° W 06:04:29 64° SSW 06:15:31 10° ESE visible
